Location: T. Spence Memorial Observatory
(32.7356°N, 82.2098°W)
Time: 05:44:45
(UTC-04:00)

Cosmos 2219 - Visible Passes

Search period start: 31 March 2015 00:00
Search period end: 10 April 2015 00:00
Orbit: 834 x 860 km, 71.1° (Epoch: 30 March)

Date Brightness Start Highest point End Pass type
(mag) Time Alt. Az. Time Alt. Az. Time Alt. Az.
31 Mar 3.4 05:34:30 10° NNW 05:40:08 70° ENE 05:45:44 10° SSE visible
31 Mar 5.6 20:23:00 10° WSW 20:27:49 26° WNW 20:32:31 10° N visible
01 Apr 3.4 05:21:07 10° NNW 05:26:44 68° ENE 05:32:19 10° SSE visible
01 Apr 5.6 20:09:33 10° WSW 20:14:25 27° WNW 20:19:10 10° N visible
02 Apr 3.5 05:07:43 10° NNW 05:13:20 66° ENE 05:18:54 10° SSE visible
03 Apr 3.5 04:54:20 10° NNW 04:59:56 65° ENE 05:05:30 10° SSE visible
03 Apr 4.7 06:41:03 10° WNW 06:43:36 13° W 06:45:44 10° WSW visible
04 Apr 3.5 04:40:57 10° NNW 04:46:32 63° ENE 04:52:05 10° SSE visible
04 Apr 4.7 06:27:31 10° WNW 06:30:12 13° W 06:32:30 10° SW visible
05 Apr 4.0 04:27:33 10° NNW 04:31:40 46° NNE 04:31:40 46° NNE visible
06 Apr 4.9 04:14:09 10° NNW 04:16:34 26° N 04:16:34 26° N visible
07 Apr 5.3 04:00:46 10° NNW 04:02:13 18° N 04:02:13 18° N visible
08 Apr 5.6 03:47:22 10° NNW 03:48:14 15° N 03:48:14 15° N visible
09 Apr 5.8 03:33:58 10° N 03:34:26 12° N 03:34:26 12° N visible
